owner,sensor,date,latitude,longitude,vertical_datum,wind_speed,wind_to_direction,wind_speed_of_gust,qcFlag 
TCOON,ioos:station:TCOON:009:1,2010-08-01T00:00:00Z,27.8398,-97.0727,0.0,2.6,150.0,5.7,'1111122,1111122,1111122' 
TCOON,ioos:station:TCOON:009:1,2010-08-01T01:00:00Z,27.8398,-97.0727,0.0,3.6,150.0,5.7,'1111122,1111122,1111122' 
TCOON,ioos:station:TCOON:009:1,2010-08-01T03:00:00Z,27.8398,-97.0727,0.0,3.1,150.0,5.1,'1111122,1111122,1111122' 
TCOON,ioos:station:TCOON:009:1,2010-08-01T04:00:00Z,27.8398,-97.0727,0.0,3.7,161.0,6.8,'11111222,11111222,11111222' 
TCOON,ioos:station:TCOON:009:1,2010-08-01T05:00:00Z,27.8398,-97.0727,0.0,3.7,174.0,6.1,'11111222,11111222,11111222' 
TCOON,ioos:station:TCOON:009:1,2010-08-01T06:00:00Z,27.8398,-97.0727,0.0,4.0,182.0,6.5,'11111222,11111222,11111222' 
TCOON,ioos:station:TCOON:009:1,2010-08-01T07:00:00Z,27.8398,-97.0727,0.0,3.8,181.0,5.6,'11111222,11111222,11111222' 
TCOON,ioos:station:TCOON:009:1,2010-08-01T08:00:00Z,27.8398,-97.0727,0.0,2.1,199.0,4.5,'11111222,11111222,11111222' 
TCOON,ioos:station:TCOON:009:1,2010-08-01T09:00:00Z,27.8398,-97.0727,0.0,2.5,212.0,3.2,'11111222,11111222,11111222' 
TCOON,ioos:station:TCOON:009:1,2010-08-01T10:00:00Z,27.8398,-97.0727,0.0,2.6,240.0,4.1,'1111122,1111122,1111122' 
TCOON,ioos:station:TCOON:009:1,2010-08-01T11:00:00Z,27.8398,-97.0727,0.0,2.3,229.0,2.9,'11111222,11111222,11111222' 
TCOON,ioos:station:TCOON:009:1,2010-08-01T12:00:00Z,27.8398,-97.0727,0.0,2.6,222.0,3.4,'11111222,11111222,11111222' 
TCOON,ioos:station:TCOON:009:1,2010-08-01T13:00:00Z,27.8398,-97.0727,0.0,2.4,225.0,3.4,'11111222,11111222,11111222' 
TCOON,ioos:station:TCOON:009:1,2010-08-01T14:00:00Z,27.8398,-97.0727,0.0,3.6,230.0,4.6,'1111122,1111122,1111122' 
TCOON,ioos:station:TCOON:009:1,2010-08-01T15:00:00Z,27.8398,-97.0727,0.0,3.1,240.0,4.6,'1111122,1111122,1111122' 
TCOON,ioos:station:TCOON:009:1,2010-08-01T16:00:00Z,27.8398,-97.0727,0.0,4.1,250.0,5.1,'1111122,1111122,1111122' 
TCOON,ioos:station:TCOON:009:1,2010-08-01T18:00:00Z,27.8398,-97.0727,0.0,3.6,160.0,5.1,'1111122,1111122,1111122' 
TCOON,ioos:station:TCOON:009:1,2010-08-01T19:00:00Z,27.8398,-97.0727,0.0,4.1,160.0,5.1,'1111122,1111122,1111122' 
TCOON,ioos:station:TCOON:009:1,2010-08-01T20:00:00Z,27.8398,-97.0727,0.0,3.9,150.0,5.6,'11111222,11111222,11111222' 
TCOON,ioos:station:TCOON:009:1,2010-08-01T21:00:00Z,27.8398,-97.0727,0.0,3.2,150.0,5.6,'11111222,11111222,11111222' 
TCOON,ioos:station:TCOON:009:1,2010-08-01T22:00:00Z,27.8398,-97.0727,0.0,3.7,137.0,5.1,'11111222,11111222,11111222' 
TCOON,ioos:station:TCOON:009:1,2010-08-01T23:00:00Z,27.8398,-97.0727,0.0,2.9,170.0,6.9,'11111222,11111222,11111222' 
TCOON,ioos:station:TCOON:009:1,2010-08-02T00:00:00Z,27.8398,-97.0727,0.0,3.1,151.0,5.5,'11111222,11111222,11111222' 
TCOON,ioos:station:TCOON:009:1,2010-08-02T01:00:00Z,27.8398,-97.0727,0.0,3.1,130.0,4.1,'1111122,1111122,1111122' 
TCOON,ioos:station:TCOON:009:1,2010-08-02T02:00:00Z,27.8398,-97.0727,0.0,2.2,150.0,3.6,'11111222,11111222,11111222' 
TCOON,ioos:station:TCOON:009:1,2010-08-02T03:00:00Z,27.8398,-97.0727,0.0,2.0,141.0,3.7,'11111222,11111222,11111222' 
TCOON,ioos:station:TCOON:009:1,2010-08-02T04:00:00Z,27.8398,-97.0727,0.0,2.4,145.0,4.0,'11111222,11111222,11111222' 
TCOON,ioos:station:TCOON:009:1,2010-08-02T05:00:00Z,27.8398,-97.0727,0.0,2.1,161.0,3.8,'11111222,11111222,11111222' 
TCOON,ioos:station:TCOON:009:1,2010-08-02T06:00:00Z,27.8398,-97.0727,0.0,2.1,161.0,3.6,'11111222,11111222,11111222' 
TCOON,ioos:station:TCOON:009:1,2010-08-02T07:00:00Z,27.8398,-97.0727,0.0,2.2,162.0,4.2,'11111222,11111222,11111222' 
TCOON,ioos:station:TCOON:009:1,2010-08-02T08:00:00Z,27.8398,-97.0727,0.0,1.3,165.0,3.3,'11111222,11111222,11111222' 
TCOON,ioos:station:TCOON:009:1,2010-08-02T09:00:00Z,27.8398,-97.0727,0.0,2.1,178.0,2.6,'11111222,11111222,11111222' 
TCOON,ioos:station:TCOON:009:1,2010-08-02T10:00:00Z,27.8398,-97.0727,0.0,1.9,191.0,2.7,'11111222,11111222,11111222' 
TCOON,ioos:station:TCOON:009:1,2010-08-02T11:00:00Z,27.8398,-97.0727,0.0,1.4,212.0,1.8,'11111222,11111222,11111222' 
TCOON,ioos:station:TCOON:009:1,2010-08-02T12:00:00Z,27.8398,-97.0727,0.0,1.9,218.0,2.0,'11111222,11111222,11111222' 
TCOON,ioos:station:TCOON:009:1,2010-08-02T13:00:00Z,27.8398,-97.0727,0.0,3.5,289.0,4.0,'11111222,11111222,11111222' 
TCOON,ioos:station:TCOON:009:1,2010-08-02T14:00:00Z,27.8398,-97.0727,0.0,2.0,299.0,2.6,'11111222,11111222,11111222' 
TCOON,ioos:station:TCOON:009:1,2010-08-02T15:00:00Z,27.8398,-97.0727,0.0,1.5,298.0,1.6,'11111222,11111222,11111222' 
TCOON,ioos:station:TCOON:009:1,2010-08-02T16:00:00Z,27.8398,-97.0727,0.0,1.6,276.0,2.2,'11111222,11111222,11111222' 
TCOON,ioos:station:TCOON:009:1,2010-08-02T17:00:00Z,27.8398,-97.0727,0.0,2.4,155.0,4.1,'11111222,11111222,11111222' 
TCOON,ioos:station:TCOON:009:1,2010-08-02T18:00:00Z,27.8398,-97.0727,0.0,3.2,150.0,4.9,'11111222,11111222,11111222' 
TCOON,ioos:station:TCOON:009:1,2010-08-02T19:00:00Z,27.8398,-97.0727,0.0,3.5,148.0,5.2,'11111222,11111222,11111222' 
TCOON,ioos:station:TCOON:009:1,2010-08-02T20:00:00Z,27.8398,-97.0727,0.0,3.1,127.0,5.6,'11111222,11111222,11111222' 
TCOON,ioos:station:TCOON:009:1,2010-08-02T21:00:00Z,27.8398,-97.0727,0.0,4.7,113.0,5.9,'11111222,11111222,11111222' 
TCOON,ioos:station:TCOON:009:1,2010-08-02T22:00:00Z,27.8398,-97.0727,0.0,3.3,132.0,6.8,'11111222,11111222,11111222' 
TCOON,ioos:station:TCOON:009:1,2010-08-02T23:00:00Z,27.8398,-97.0727,0.0,3.6,140.0,5.7,'1111122,1111122,1111122' 
TCOON,ioos:station:TCOON:009:1,2010-08-03T00:00:00Z,27.8398,-97.0727,0.0,4.1,140.0,6.7,'1111122,1111122,1111122' 
TCOON,ioos:station:TCOON:009:1,2010-08-03T01:00:00Z,27.8398,-97.0727,0.0,3.6,130.0,5.7,'1111122,1111122,1111122' 
TCOON,ioos:station:TCOON:009:1,2010-08-03T02:00:00Z,27.8398,-97.0727,0.0,4.1,120.0,6.2,'1111122,1111122,1111122' 
TCOON,ioos:station:TCOON:009:1,2010-08-03T03:00:00Z,27.8398,-97.0727,0.0,3.6,116.0,5.3,'11111222,11111222,11111222' 
TCOON,ioos:station:TCOON:009:1,2010-08-03T04:00:00Z,27.8398,-97.0727,0.0,3.6,130.0,4.6,'1111122,1111122,1111122' 
TCOON,ioos:station:TCOON:009:1,2010-08-03T05:00:00Z,27.8398,-97.0727,0.0,4.1,145.0,5.7,'11111222,11111222,11111222' 
TCOON,ioos:station:TCOON:009:1,2010-08-03T06:00:00Z,27.8398,-97.0727,0.0,3.9,151.0,6.3,'11111222,11111222,11111222' 
TCOON,ioos:station:TCOON:009:1,2010-08-03T07:00:00Z,27.8398,-97.0727,0.0,2.1,163.0,3.9,'11111222,11111222,11111222' 
TCOON,ioos:station:TCOON:009:1,2010-08-03T08:00:00Z,27.8398,-97.0727,0.0,2.5,175.0,3.7,'11111222,11111222,11111222' 
TCOON,ioos:station:TCOON:009:1,2010-08-03T09:00:00Z,27.8398,-97.0727,0.0,1.8,175.0,2.9,'11111222,11111222,11111222' 
TCOON,ioos:station:TCOON:009:1,2010-08-03T10:00:00Z,27.8398,-97.0727,0.0,1.8,152.0,2.4,'11111222,11111222,11111222' 
TCOON,ioos:station:TCOON:009:1,2010-08-03T11:00:00Z,27.8398,-97.0727,0.0,0.8,186.0,1.4,'11111222,11111222,11111222' 
TCOON,ioos:station:TCOON:009:1,2010-08-03T12:00:00Z,27.8398,-97.0727,0.0,0.3,203.0,0.4,'11111222,11111222,11111222' 
TCOON,ioos:station:TCOON:009:1,2010-08-03T13:00:00Z,27.8398,-97.0727,0.0,0.1,220.0,0.6,'11111222,11111222,11111222' 
TCOON,ioos:station:TCOON:009:1,2010-08-03T14:00:00Z,27.8398,-97.0727,0.0,2.2,114.0,2.7,'11111222,11111222,11111222' 
TCOON,ioos:station:TCOON:009:1,2010-08-03T15:00:00Z,27.8398,-97.0727,0.0,1.5,82.0,2.3,'11111222,11111222,11111222' 
TCOON,ioos:station:TCOON:009:1,2010-08-03T16:00:00Z,27.8398,-97.0727,0.0,3.0,58.0,4.9,'11111222,11111222,11111222' 
TCOON,ioos:station:TCOON:009:1,2010-08-03T17:00:00Z,27.8398,-97.0727,0.0,3.1,70.0,5.1,'1111122,1111122,1111122' 
TCOON,ioos:station:TCOON:009:1,2010-08-03T18:00:00Z,27.8398,-97.0727,0.0,3.1,80.0,23.7,'1111122,1111122,1111122' 
TCOON,ioos:station:TCOON:009:1,2010-08-03T19:00:00Z,27.8398,-97.0727,0.0,4.8,68.0,5.8,'11111222,11111222,11111222' 
TCOON,ioos:station:TCOON:009:1,2010-08-03T20:00:00Z,27.8398,-97.0727,0.0,5.1,80.0,6.7,'1111122,1111122,1111122' 
TCOON,ioos:station:TCOON:009:1,2010-08-03T21:00:00Z,27.8398,-97.0727,0.0,4.6,80.0,7.2,'1111122,1111122,1111122' 
TCOON,ioos:station:TCOON:009:1,2010-08-03T22:00:00Z,27.8398,-97.0727,0.0,5.1,90.0,6.7,'1111122,1111122,1111122' 
TCOON,ioos:station:TCOON:009:1,2010-08-03T23:00:00Z,27.8398,-97.0727,0.0,5.0,98.0,6.6,'11111222,11111222,11111222' 
TCOON,ioos:station:TCOON:009:1,2010-08-04T00:00:00Z,27.8398,-97.0727,0.0,3.6,120.0,5.1,'1111122,1111122,1111122' 
TCOON,ioos:station:TCOON:009:1,2010-08-04T01:00:00Z,27.8398,-97.0727,0.0,3.8,119.0,5.0,'11111222,11111222,11111222' 
TCOON,ioos:station:TCOON:009:1,2010-08-04T02:00:00Z,27.8398,-97.0727,0.0,2.1,144.0,4.6,'11111222,11111222,11111222' 
TCOON,ioos:station:TCOON:009:1,2010-08-04T03:00:00Z,27.8398,-97.0727,0.0,3.3,128.0,4.0,'11111222,11111222,11111222' 
TCOON,ioos:station:TCOON:009:1,2010-08-04T04:00:00Z,27.8398,-97.0727,0.0,4.3,122.0,6.1,'11111222,11111222,11111222' 
TCOON,ioos:station:TCOON:009:1,2010-08-04T05:00:00Z,27.8398,-97.0727,0.0,3.1,150.0,4.1,'1111122,1111122,1111122' 
TCOON,ioos:station:TCOON:009:1,2010-08-04T06:00:00Z,27.8398,-97.0727,0.0,2.7,149.0,4.1,'11111222,11111222,11111222' 
TCOON,ioos:station:TCOON:009:1,2010-08-04T07:00:00Z,27.8398,-97.0727,0.0,2.1,164.0,4.9,'11111222,11111222,11111222' 
TCOON,ioos:station:TCOON:009:1,2010-08-04T08:00:00Z,27.8398,-97.0727,0.0,4.0,180.0,5.2,'11111222,11111222,11111222' 
TCOON,ioos:station:TCOON:009:1,2010-08-04T09:00:00Z,27.8398,-97.0727,0.0,2.8,210.0,4.0,'11111222,11111222,11111222' 
TCOON,ioos:station:TCOON:009:1,2010-08-04T10:00:00Z,27.8398,-97.0727,0.0,2.3,212.0,3.2,'11111222,11111222,11111222' 
TCOON,ioos:station:TCOON:009:1,2010-08-04T11:00:00Z,27.8398,-97.0727,0.0,1.6,202.0,2.6,'11111222,11111222,11111222' 
TCOON,ioos:station:TCOON:009:1,2010-08-04T12:00:00Z,27.8398,-97.0727,0.0,2.9,222.0,4.1,'11111222,11111222,11111222' 
TCOON,ioos:station:TCOON:009:1,2010-08-04T13:00:00Z,27.8398,-97.0727,0.0,2.6,220.0,4.1,'1111122,1111122,1111122' 
TCOON,ioos:station:TCOON:009:1,2010-08-04T14:00:00Z,27.8398,-97.0727,0.0,2.3,199.0,3.7,'11111222,11111222,11111222' 
TCOON,ioos:station:TCOON:009:1,2010-08-04T15:00:00Z,27.8398,-97.0727,0.0,3.4,176.0,4.6,'11111222,11111222,11111222' 
TCOON,ioos:station:TCOON:009:1,2010-08-04T16:00:00Z,27.8398,-97.0727,0.0,2.5,185.0,3.6,'11111222,11111222,11111222' 
TCOON,ioos:station:TCOON:009:1,2010-08-04T17:00:00Z,27.8398,-97.0727,0.0,3.2,120.0,4.0,'11111222,11111222,11111222' 
TCOON,ioos:station:TCOON:009:1,2010-08-04T18:00:00Z,27.8398,-97.0727,0.0,2.9,119.0,5.3,'11111222,11111222,11111222' 
TCOON,ioos:station:TCOON:009:1,2010-08-04T19:00:00Z,27.8398,-97.0727,0.0,2.5,122.0,4.8,'11111222,11111222,11111222' 
TCOON,ioos:station:TCOON:009:1,2010-08-04T20:00:00Z,27.8398,-97.0727,0.0,4.4,140.0,6.0,'11111222,11111222,11111222' 
TCOON,ioos:station:TCOON:009:1,2010-08-04T21:00:00Z,27.8398,-97.0727,0.0,4.1,130.0,6.7,'1111122,1111122,1111122' 
TCOON,ioos:station:TCOON:009:1,2010-08-04T22:00:00Z,27.8398,-97.0727,0.0,4.6,150.0,6.7,'1111122,1111122,1111122' 
TCOON,ioos:station:TCOON:009:1,2010-08-04T23:00:00Z,27.8398,-97.0727,0.0,3.6,140.0,5.7,'1111122,1111122,1111122' 
TCOON,ioos:station:TCOON:009:1,2010-08-05T00:00:00Z,27.8398,-97.0727,0.0,3.1,150.0,5.7,'1111122,1111122,1111122' 
TCOON,ioos:station:TCOON:009:1,2010-08-05T01:00:00Z,27.8398,-97.0727,0.0,3.6,150.0,5.1,'1111122,1111122,1111122' 
TCOON,ioos:station:TCOON:009:1,2010-08-05T02:00:00Z,27.8398,-97.0727,0.0,3.5,155.0,5.0,'11111222,11111222,11111222' 
TCOON,ioos:station:TCOON:009:1,2010-08-05T03:00:00Z,27.8398,-97.0727,0.0,3.3,148.0,4.9,'11111222,11111222,11111222' 
TCOON,ioos:station:TCOON:009:1,2010-08-05T04:00:00Z,27.8398,-97.0727,0.0,3.6,150.0,6.2,'1111122,1111122,1111122' 
TCOON,ioos:station:TCOON:009:1,2010-08-05T05:00:00Z,27.8398,-97.0727,0.0,3.1,175.0,6.3,'11111222,11111222,11111222' 
TCOON,ioos:station:TCOON:009:1,2010-08-05T06:00:00Z,27.8398,-97.0727,0.0,3.1,180.0,4.6,'1111122,1111122,1111122' 
TCOON,ioos:station:TCOON:009:1,2010-08-05T07:00:00Z,27.8398,-97.0727,0.0,2.6,190.0,5.1,'1111122,1111122,1111122' 
TCOON,ioos:station:TCOON:009:1,2010-08-05T08:00:00Z,27.8398,-97.0727,0.0,2.1,207.0,4.1,'11111222,11111222,11111222' 
TCOON,ioos:station:TCOON:009:1,2010-08-05T09:00:00Z,27.8398,-97.0727,0.0,2.6,190.0,4.1,'1111122,1111122,1111122' 
TCOON,ioos:station:TCOON:009:1,2010-08-05T10:00:00Z,27.8398,-97.0727,0.0,2.1,210.0,3.1,'1111122,1111122,1111122' 
TCOON,ioos:station:TCOON:009:1,2010-08-05T11:00:00Z,27.8398,-97.0727,0.0,1.0,210.0,1.5,'1111122,1111122,1111122' 
TCOON,ioos:station:TCOON:009:1,2010-08-05T12:00:00Z,27.8398,-97.0727,0.0,0.7,200.0,1.1,'11111222,11111222,11111222' 
TCOON,ioos:station:TCOON:009:1,2010-08-05T13:00:00Z,27.8398,-97.0727,0.0,1.9,220.0,2.4,'11111222,11111222,11111222' 
TCOON,ioos:station:TCOON:009:1,2010-08-05T14:00:00Z,27.8398,-97.0727,0.0,1.7,254.0,2.8,'11111222,11111222,11111222' 
TCOON,ioos:station:TCOON:009:1,2010-08-05T15:00:00Z,27.8398,-97.0727,0.0,1.3,248.0,3.2,'11111222,11111222,11111222' 
TCOON,ioos:station:TCOON:009:1,2010-08-05T16:00:00Z,27.8398,-97.0727,0.0,3.1,147.0,4.3,'11111222,11111222,11111222' 
TCOON,ioos:station:TCOON:009:1,2010-08-05T17:00:00Z,27.8398,-97.0727,0.0,3.0,156.0,5.2,'11111222,11111222,11111222' 
TCOON,ioos:station:TCOON:009:1,2010-08-05T18:00:00Z,27.8398,-97.0727,0.0,3.1,140.0,5.1,'1111122,1111122,1111122' 
TCOON,ioos:station:TCOON:009:1,2010-08-05T19:00:00Z,27.8398,-97.0727,0.0,4.1,140.0,6.2,'1111122,1111122,1111122' 
TCOON,ioos:station:TCOON:009:1,2010-08-05T20:00:00Z,27.8398,-97.0727,0.0,2.5,141.0,7.4,'11111222,11111222,11111222' 
TCOON,ioos:station:TCOON:009:1,2010-08-05T21:00:00Z,27.8398,-97.0727,0.0,2.6,160.0,6.2,'1111122,1111122,1111122' 
TCOON,ioos:station:TCOON:009:1,2010-08-05T22:00:00Z,27.8398,-97.0727,0.0,3.7,142.0,99.0,'11111222,11111222,11144222' 
TCOON,ioos:station:TCOON:009:1,2010-08-05T23:00:00Z,27.8398,-97.0727,0.0,3.1,140.0,6.2,'1111122,1111122,1111122' 
TCOON,ioos:station:TCOON:009:1,2010-08-06T00:00:00Z,27.8398,-97.0727,0.0,3.1,140.0,5.1,'1111122,1111122,1111122' 
TCOON,ioos:station:TCOON:009:1,2010-08-06T01:00:00Z,27.8398,-97.0727,0.0,3.2,139.0,5.2,'11111222,11111222,11111222' 
TCOON,ioos:station:TCOON:009:1,2010-08-06T02:00:00Z,27.8398,-97.0727,0.0,3.6,150.0,5.7,'1111122,1111122,1111122' 
TCOON,ioos:station:TCOON:009:1,2010-08-06T03:00:00Z,27.8398,-97.0727,0.0,3.1,150.0,4.6,'1111122,1111122,1111122' 
TCOON,ioos:station:TCOON:009:1,2010-08-06T04:00:00Z,27.8398,-97.0727,0.0,2.6,158.0,5.5,'11111222,11111222,11111222' 
TCOON,ioos:station:TCOON:009:1,2010-08-06T05:00:00Z,27.8398,-97.0727,0.0,2.2,162.0,5.0,'11111222,11111222,11111222' 
TCOON,ioos:station:TCOON:009:1,2010-08-06T06:00:00Z,27.8398,-97.0727,0.0,4.1,170.0,5.8,'11111222,11111222,11111222' 
TCOON,ioos:station:TCOON:009:1,2010-08-06T07:00:00Z,27.8398,-97.0727,0.0,3.4,171.0,6.1,'11111222,11111222,11111222' 
TCOON,ioos:station:TCOON:009:1,2010-08-06T08:00:00Z,27.8398,-97.0727,0.0,4.2,182.0,6.5,'11111222,11111222,11111222' 
TCOON,ioos:station:TCOON:009:1,2010-08-06T09:00:00Z,27.8398,-97.0727,0.0,4.4,182.0,5.6,'11111222,11111222,11111222' 
TCOON,ioos:station:TCOON:009:1,2010-08-06T10:00:00Z,27.8398,-97.0727,0.0,2.1,198.0,3.7,'11111222,11111222,11111222' 
TCOON,ioos:station:TCOON:009:1,2010-08-06T11:00:00Z,27.8398,-97.0727,0.0,2.3,200.0,3.7,'11111222,11111222,11111222' 
TCOON,ioos:station:TCOON:009:1,2010-08-06T12:00:00Z,27.8398,-97.0727,0.0,2.1,210.0,3.1,'1111122,1111122,1111122' 
TCOON,ioos:station:TCOON:009:1,2010-08-06T13:00:00Z,27.8398,-97.0727,0.0,2.6,220.0,4.1,'1111122,1111122,1111122' 
TCOON,ioos:station:TCOON:009:1,2010-08-06T14:00:00Z,27.8398,-97.0727,0.0,2.6,220.0,4.1,'1111122,1111122,1111122' 
TCOON,ioos:station:TCOON:009:1,2010-08-06T15:00:00Z,27.8398,-97.0727,0.0,2.1,240.0,3.6,'1111122,1111122,1111122' 
TCOON,ioos:station:TCOON:009:1,2010-08-06T16:00:00Z,27.8398,-97.0727,0.0,3.4,214.0,5.5,'11111222,11111222,11111222' 
TCOON,ioos:station:TCOON:009:1,2010-08-06T17:00:00Z,27.8398,-97.0727,0.0,3.9,187.0,6.2,'11111222,11111222,11111222' 
TCOON,ioos:station:TCOON:009:1,2010-08-06T18:00:00Z,27.8398,-97.0727,0.0,3.1,180.0,4.6,'1111122,1111122,1111122' 
TCOON,ioos:station:TCOON:009:1,2010-08-06T19:00:00Z,27.8398,-97.0727,0.0,3.1,160.0,5.7,'1111122,1111122,1111122' 
TCOON,ioos:station:TCOON:009:1,2010-08-06T20:00:00Z,27.8398,-97.0727,0.0,3.1,160.0,5.7,'1111122,1111122,1111122' 
TCOON,ioos:station:TCOON:009:1,2010-08-06T21:00:00Z,27.8398,-97.0727,0.0,4.3,124.0,6.0,'11111222,11111222,11111222' 
TCOON,ioos:station:TCOON:009:1,2010-08-06T22:00:00Z,27.8398,-97.0727,0.0,3.1,130.0,5.7,'1111122,1111122,1111122' 
TCOON,ioos:station:TCOON:009:1,2010-08-06T23:00:00Z,27.8398,-97.0727,0.0,3.6,130.0,5.7,'1111122,1111122,1111122' 
TCOON,ioos:station:TCOON:009:1,2010-08-07T00:00:00Z,27.8398,-97.0727,0.0,4.8,122.0,6.7,'11111222,11111222,11111222' 
TCOON,ioos:station:TCOON:009:1,2010-08-07T01:00:00Z,27.8398,-97.0727,0.0,4.2,130.0,6.3,'11111222,11111222,11111222' 
TCOON,ioos:station:TCOON:009:1,2010-08-07T02:00:00Z,27.8398,-97.0727,0.0,4.3,129.0,22.9,'11111222,11111222,11111222' 
TCOON,ioos:station:TCOON:009:1,2010-08-07T03:00:00Z,27.8398,-97.0727,0.0,3.5,134.0,5.8,'11111222,11111222,11111222' 
TCOON,ioos:station:TCOON:009:1,2010-08-07T04:00:00Z,27.8398,-97.0727,0.0,2.9,145.0,6.4,'11111222,11111222,11111222' 
TCOON,ioos:station:TCOON:009:1,2010-08-07T05:00:00Z,27.8398,-97.0727,0.0,2.7,149.0,4.9,'11111222,11111222,11111222' 
TCOON,ioos:station:TCOON:009:1,2010-08-07T06:00:00Z,27.8398,-97.0727,0.0,3.0,161.0,4.7,'11111222,11111222,11111222' 
TCOON,ioos:station:TCOON:009:1,2010-08-07T07:00:00Z,27.8398,-97.0727,0.0,3.2,174.0,5.2,'11111222,11111222,11111222' 
TCOON,ioos:station:TCOON:009:1,2010-08-07T08:00:00Z,27.8398,-97.0727,0.0,3.8,177.0,5.4,'11111222,11111222,11111222' 
TCOON,ioos:station:TCOON:009:1,2010-08-07T09:00:00Z,27.8398,-97.0727,0.0,4.0,179.0,6.5,'11111222,11111222,11111222' 
TCOON,ioos:station:TCOON:009:1,2010-08-07T10:00:00Z,27.8398,-97.0727,0.0,3.3,188.0,5.6,'11111222,11111222,11111222' 
TCOON,ioos:station:TCOON:009:1,2010-08-07T11:00:00Z,27.8398,-97.0727,0.0,2.7,191.0,3.9,'11111222,11111222,11111222' 
TCOON,ioos:station:TCOON:009:1,2010-08-07T12:00:00Z,27.8398,-97.0727,0.0,2.1,215.0,3.1,'11111222,11111222,11111222' 
TCOON,ioos:station:TCOON:009:1,2010-08-07T13:00:00Z,27.8398,-97.0727,0.0,2.5,208.0,3.0,'11111222,11111222,11111222' 
TCOON,ioos:station:TCOON:009:1,2010-08-07T14:00:00Z,27.8398,-97.0727,0.0,3.1,210.0,3.6,'1111122,1111122,1111122' 
TCOON,ioos:station:TCOON:009:1,2010-08-07T15:00:00Z,27.8398,-97.0727,0.0,3.1,190.0,5.7,'1111122,1111122,1111122' 
TCOON,ioos:station:TCOON:009:1,2010-08-07T16:00:00Z,27.8398,-97.0727,0.0,4.1,176.0,5.4,'11111222,11111222,11111222' 
TCOON,ioos:station:TCOON:009:1,2010-08-07T17:00:00Z,27.8398,-97.0727,0.0,3.5,145.0,5.2,'11111222,11111222,11111222' 
TCOON,ioos:station:TCOON:009:1,2010-08-07T18:00:00Z,27.8398,-97.0727,0.0,4.6,135.0,5.7,'11111222,11111222,11111222' 
TCOON,ioos:station:TCOON:009:1,2010-08-07T19:00:00Z,27.8398,-97.0727,0.0,4.1,150.0,7.2,'1111122,1111122,1111122' 
TCOON,ioos:station:TCOON:009:1,2010-08-07T20:00:00Z,27.8398,-97.0727,0.0,4.2,154.0,6.8,'11111222,11111222,11111222' 
TCOON,ioos:station:TCOON:009:1,2010-08-07T21:00:00Z,27.8398,-97.0727,0.0,4.1,140.0,6.2,'1111122,1111122,1111122' 
TCOON,ioos:station:TCOON:009:1,2010-08-07T22:00:00Z,27.8398,-97.0727,0.0,5.1,130.0,7.2,'1111122,1111122,1111122' 
TCOON,ioos:station:TCOON:009:1,2010-08-07T23:00:00Z,27.8398,-97.0727,0.0,5.5,144.0,14.1,'11111222,11111222,11111222' 
TCOON,ioos:station:TCOON:009:1,2010-08-08T00:00:00Z,27.8398,-97.0727,0.0,3.6,143.0,6.0,'11111222,11111222,11111222' 
TCOON,ioos:station:TCOON:009:1,2010-08-08T01:00:00Z,27.8398,-97.0727,0.0,4.2,149.0,6.3,'11111222,11111222,11111222' 
TCOON,ioos:station:TCOON:009:1,2010-08-08T02:00:00Z,27.8398,-97.0727,0.0,3.7,158.0,6.3,'11111222,11111222,11111222' 
TCOON,ioos:station:TCOON:009:1,2010-08-08T03:00:00Z,27.8398,-97.0727,0.0,3.1,150.0,6.7,'1111122,1111122,1111122' 
TCOON,ioos:station:TCOON:009:1,2010-08-08T04:00:00Z,27.8398,-97.0727,0.0,5.2,155.0,8.3,'11111222,11111222,11111222' 
TCOON,ioos:station:TCOON:009:1,2010-08-08T05:00:00Z,27.8398,-97.0727,0.0,4.6,160.0,6.7,'1111122,1111122,1111122' 
TCOON,ioos:station:TCOON:009:1,2010-08-08T06:00:00Z,27.8398,-97.0727,0.0,4.6,169.0,7.5,'11111222,11111222,11111222' 
TCOON,ioos:station:TCOON:009:1,2010-08-08T07:00:00Z,27.8398,-97.0727,0.0,5.1,181.0,7.4,'11111222,11111222,11111222' 
TCOON,ioos:station:TCOON:009:1,2010-08-08T08:00:00Z,27.8398,-97.0727,0.0,4.2,180.0,6.3,'11111222,11111222,11111222' 
TCOON,ioos:station:TCOON:009:1,2010-08-08T09:00:00Z,27.8398,-97.0727,0.0,3.6,180.0,4.7,'11111222,11111222,11111222' 
TCOON,ioos:station:TCOON:009:1,2010-08-08T10:00:00Z,27.8398,-97.0727,0.0,3.6,180.0,6.7,'1111122,1111122,1111122' 
TCOON,ioos:station:TCOON:009:1,2010-08-08T11:00:00Z,27.8398,-97.0727,0.0,3.1,180.0,3.6,'1111122,1111122,1111122' 
TCOON,ioos:station:TCOON:009:1,2010-08-08T12:00:00Z,27.8398,-97.0727,0.0,2.6,180.0,4.1,'1111122,1111122,1111122' 
TCOON,ioos:station:TCOON:009:1,2010-08-08T13:00:00Z,27.8398,-97.0727,0.0,3.1,170.0,8.2,'1111122,1111122,1111122' 
TCOON,ioos:station:TCOON:009:1,2010-08-08T14:00:00Z,27.8398,-97.0727,0.0,2.6,160.0,5.7,'1111122,1111122,1111122' 
TCOON,ioos:station:TCOON:009:1,2010-08-08T15:00:00Z,27.8398,-97.0727,0.0,4.8,175.0,7.1,'11111222,11111222,11111222' 
TCOON,ioos:station:TCOON:009:1,2010-08-08T16:00:00Z,27.8398,-97.0727,0.0,4.1,160.0,8.2,'1111122,1111122,1111122' 
TCOON,ioos:station:TCOON:009:1,2010-08-08T17:00:00Z,27.8398,-97.0727,0.0,3.6,151.0,6.9,'11111222,11111222,11111222' 
TCOON,ioos:station:TCOON:009:1,2010-08-08T18:00:00Z,27.8398,-97.0727,0.0,5.5,149.0,7.4,'11111222,11111222,11111222' 
TCOON,ioos:station:TCOON:009:1,2010-08-08T19:00:00Z,27.8398,-97.0727,0.0,6.4,146.0,8.1,'11111222,11111222,11111222' 
TCOON,ioos:station:TCOON:009:1,2010-08-08T20:00:00Z,27.8398,-97.0727,0.0,4.4,164.0,8.5,'11111222,11111222,11111222' 
TCOON,ioos:station:TCOON:009:1,2010-08-08T21:00:00Z,27.8398,-97.0727,0.0,3.6,150.0,6.7,'1111122,1111122,1111122' 
TCOON,ioos:station:TCOON:009:1,2010-08-08T22:00:00Z,27.8398,-97.0727,0.0,4.8,135.0,8.0,'11111222,11111222,11111222' 
TCOON,ioos:station:TCOON:009:1,2010-08-08T23:00:00Z,27.8398,-97.0727,0.0,4.8,134.0,7.7,'11111222,11111222,11111222' 
TCOON,ioos:station:TCOON:009:1,2010-08-09T00:00:00Z,27.8398,-97.0727,0.0,4.6,129.0,7.8,'11111222,11111222,11111222' 
TCOON,ioos:station:TCOON:009:1,2010-08-09T01:00:00Z,27.8398,-97.0727,0.0,4.5,134.0,7.6,'11111222,11111222,11111222' 
TCOON,ioos:station:TCOON:009:1,2010-08-09T02:00:00Z,27.8398,-97.0727,0.0,3.6,140.0,6.2,'1111122,1111122,1111122' 
TCOON,ioos:station:TCOON:009:1,2010-08-09T03:00:00Z,27.8398,-97.0727,0.0,4.8,146.0,6.0,'11111222,11111222,11111222' 
TCOON,ioos:station:TCOON:009:1,2010-08-09T04:00:00Z,27.8398,-97.0727,0.0,4.2,151.0,7.8,'11111222,11111222,11111222' 
TCOON,ioos:station:TCOON:009:1,2010-08-09T05:00:00Z,27.8398,-97.0727,0.0,2.9,158.0,4.6,'11111222,11111222,11111222' 
TCOON,ioos:station:TCOON:009:1,2010-08-09T06:00:00Z,27.8398,-97.0727,0.0,2.7,155.0,6.8,'11111222,11111222,11111222' 
TCOON,ioos:station:TCOON:009:1,2010-08-09T07:00:00Z,27.8398,-97.0727,0.0,3.1,154.0,5.6,'11111222,11111222,11111222' 
TCOON,ioos:station:TCOON:009:1,2010-08-09T08:00:00Z,27.8398,-97.0727,0.0,3.6,161.0,6.4,'11111222,11111222,11111222' 
TCOON,ioos:station:TCOON:009:1,2010-08-09T09:00:00Z,27.8398,-97.0727,0.0,2.7,168.0,6.0,'11111222,11111222,11111222' 
TCOON,ioos:station:TCOON:009:1,2010-08-09T10:00:00Z,27.8398,-97.0727,0.0,2.6,167.0,4.8,'11111222,11111222,11111222' 
TCOON,ioos:station:TCOON:009:1,2010-08-09T11:00:00Z,27.8398,-97.0727,0.0,3.2,180.0,4.9,'11111222,11111222,11111222' 
TCOON,ioos:station:TCOON:009:1,2010-08-09T12:00:00Z,27.8398,-97.0727,0.0,2.5,174.0,4.0,'11111222,11111222,11111222' 
TCOON,ioos:station:TCOON:009:1,2010-08-09T13:00:00Z,27.8398,-97.0727,0.0,2.6,170.0,3.6,'1111122,1111122,1111122' 
TCOON,ioos:station:TCOON:009:1,2010-08-09T14:00:00Z,27.8398,-97.0727,0.0,3.0,154.0,4.7,'11111222,11111222,11111222' 